User: anonymous
Location: Writing-on-Stone Provincial Park
(49.0825°N, 111.6163°W)
Time: 01:39:10
(UTC-06:00)
Language:

BREEZE-M DEB (TANK) - Orbit

View from above orbital plane
View from above orbital plane
View from above satellite
View from above satellite

Ground track
Ground track

The orbit data is extracted from the following two-line orbital elements,

1 29649U 06056B   14203.45979707  .00004261  00000-0  59330-3 0  9643
2 29649 049.5030 285.6400 5428024 222.5656 269.0345 04.94104022134981
Epoch (UTC): 22 July 2014 11:02:06
Eccentricity: 0.5428024
inclination: 49.5030°
perigee height: 279 km
apogee height: 16086 km
right ascension of ascending node: 285.6400°
argument of perigee: 222.5656°
revolutions per day: 4.94104022
mean anomaly at epoch: 269.0345°
orbit number at epoch: 13498

The dashed part of the orbit path shows where the satellite is in the earth's shadow,  

DLR